Showing default

COSMOS 2449 (GLONASS), 33467

Orbit data source: Space-Track

COSMOS 2449 (GLONASS), 33467 is a Commonwealth of Independent States-origin payload satellite in MEO that was launched on Thu, 25 Dec 2008 UTC via a PROTON-M/DM-2 launch vehicle from the Tyuratam Missile And Space Complex (TTMTR). Payloads include a variety of satellites, spacecraft, and rockets equipped with specific instruments for various scientific and technological missions. These include communications satellites like Starlink; space stations such as the ISS; scientific satellites like the Hubble; Earth observation satellites from companies like Planet Labs, Umbra, and HawkEye 360; GPS; miniature CubeSats for education and research; and military/defense satellites.

Loading next visibility...
COSMOS 2449 (GLONASS) details
Identifier
33467, 2008-067B
Orbit
MEO
Last TLE update2 days ago
Origin
Flag of CISKVR/IACG (CIS)
ManufacturerResehetnev ISS
MissionNon-operational Defense Navigation
Bus & MotorURAGAN, Unknown motor
Mass1,450 kg wet, ~1,200 kg dry
Launch date (UTC)
2008-12-25 (16 years ago)
Launch vehicle
PROTON-M/DM-2
Launch site
Tyuratam Missile And Space Complex (TTMTR)
Object type
Payload
Rocket body
Debris
Shape & HBRCyl + 1 Ant + 2 Pan, 7.8 m
Radar Cross Section8.467 m², Large (>1 m²)

Expand to show TLE details & history

TLE from 2 days ago
0 COSMOS 2449 (GLONASS)
1 33467U 08067B   24359.69291661 -.00000039  00000-0  00000-0 0  9990
2 33467  64.4942  87.8605 0033087 236.5621 123.1411  2.13097316124466
Epoch: 2024-12-24T16:37Z
Definitive object data (Epoch: 2024-12-24T16:37:47.995Z)
Latitude0.00005°
Longitude104.71948°
Altitude19,177.243 km
Speed3.946 km/s
True Right ascension05h 51m 28s
True Declination0° 00' 00"
Sunlit
Object was in daylight at TLE epoch
Visualization TLE readout
Latitude25.5324°
Longitude117.79191°
Altitude19,205.879 km
Speed3.942 km/s
Apparent Right ascension06h 00m 55s
Apparent Declination15° 29' 01"
Sunlit
Object is in full shadow
Visualization observer readout
Local Sidereal Time13:56:22
Azimuth300.806° NW
Elevation-10.689°
Doppler factor1
Orbital elements
Apogee altitude19,214.292 km
Perigee altitude19,045.495 km
Semi-major axis25,508.031 km
Eccentricity0.0033087
Inclination64.4942°
RAAN87.8605°
Arg. of periapsis236.5621°
True anomaly123.45785°
Mean anomaly123.1411°
Eccentric anomaly123.29955°
Mean motion0.53276 °/min
BSTARUnknown
Orbital period675.73 mins
Loading maneuver chart data...
Loading historical data...
Loading historical data...
Loading historical data...
Loading historical data...
Loading historical data...
Loading historical data...
Loading historical data...

COSMOS 2449 (GLONASS) Visibility forecast

Observer location: undefined°, undefined

Span
Click to sort rows by Start time (UTC) header in descending order
Start Az.
Max El. time (UTC)
Max El. Az.
Max El.
End time (UTC)
End Az.
278 mins2024-12-26 15:32:30.250Z316.942° NNW2024-12-26 17:58:30.250Z266.557° W43.991°2024-12-26 20:10:30.250Z193.108° SSW
90 mins2024-12-27 02:04:30.250Z67.861° E2024-12-27 02:49:30.250Z45.884° ENE15.087°2024-12-27 03:34:30.250Z25.145° NE
67 mins2024-12-27 13:27:30.250Z296.495° NW2024-12-27 14:34:30.250Z320.607° NNW29.696°2024-12-27 14:34:30.250Z320.607° NNW
|